This is the latest recevied weather packets stored in our database for station/object F4NFR-13. If no packets are shown the sender has not sent any weather packets the latest 10 day(s).
| Time | Temp. | Humidity | Pressure | Rain* | Wind** | Luminosity | Snow |
|---|---|---|---|---|---|---|---|
| 1777823867 | 13.89° C | 88% | 1012.3 hPa | 0 mm | - | 217 W/m² | - |
| 1777823565 | 13.89° C | 88% | 1012.3 hPa | 0 mm | - | 234 W/m² | - |
| 1777823263 | 15° C | 85% | 1012.3 hPa | 0 mm | - | 237 W/m² | - |
| 1777822960 | 15° C | 83% | 1012 hPa | 0 mm | - | 261 W/m² | - |
| 1777822053 | 15° C | 82% | 1012 hPa | 0 mm | - | 274 W/m² | - |
| 1777821751 | 15° C | 82% | 1012.3 hPa | 0 mm | - | 276 W/m² | - |
| 1777821449 | 16.11° C | 80% | 1012.3 hPa | 0 mm | - | - | - |
| 1777821146 | 16.11° C | 82% | 1012.3 hPa | 0 mm | - | - | - |
| 1777820844 | 15° C | 85% | 1012.3 hPa | 0 mm | - | 0 W/m² | - |
| 1777820541 | 15° C | 87% | 1012.3 hPa | 0 mm | - | 0 W/m² | - |
| 1777819936 | 15° C | 89% | 1012.3 hPa | 0 mm | - | 321 W/m² | - |
| 1777819332 | 13.89° C | 90% | 1012.3 hPa | 0 mm | - | 0 W/m² | - |
| 1777818725 | 13.89° C | 91% | 1012.3 hPa | 0 mm | - | 297 W/m² | - |
| 1777818423 | 13.89° C | 90% | 1012.3 hPa | 0 mm | - | 321 W/m² | - |
| 1777818120 | 15° C | 90% | 1012.3 hPa | 0 mm | - | 258 W/m² | - |
| 1777817818 | 15° C | 89% | 1012.3 hPa | 0 mm | - | 187 W/m² | - |
| 1777817516 | 15° C | 89% | 1012.3 hPa | 0 mm | - | 0 W/m² | - |
| 1777817213 | 15° C | 89% | 1012.3 hPa | 0 mm | - | 280 W/m² | - |
| 1777816910 | 15° C | 90% | 1012.3 hPa | 0 mm | - | 301 W/m² | - |
| 1777816608 | 13.89° C | 90% | 1012.7 hPa | 0 mm | - | 252 W/m² | - |
| 1777816306 | 15° C | 89% | 1012.7 hPa | 0 mm | - | 0 W/m² | - |
| 1777816004 | 15° C | 90% | 1012.7 hPa | 0 mm | - | 255 W/m² | - |
| 1777815702 | 15° C | 91% | 1012.7 hPa | 0 mm | - | 219 W/m² | - |
| 1777815399 | 13.89° C | 91% | 1012.7 hPa | 0 mm | - | 169 W/m² | - |
| 1777815096 | 13.89° C | 90% | 1012.7 hPa | 0 mm | - | 153 W/m² | - |
* Rain latest hour (hover to see other rain measurements)
** Current wind speed in m/s (hover to see current wind gust speed)